When you browse on this site, cookies collect data to enhance your experience and personalize the content and advertising you see.
Visit our Privacy Policy to learn more. By continuing to use the site, you agree to this use of cookies and data.
  • In Czech Republic
  • List of Countries
  • For 7 days
  • Water Temperature
  • Weather Map
  • Weather Widgets
  • user-avatar
    Login

    Hourly Weather Sierbowice

    Today, 29 May, Friday

    Time Temperature Precipitation Wind Pressure Humidity
    00:00 +8°C° 0.1 mm 4 mps 736 mmHg 95%
    01:00 +8°C° 0 mm 4 mps 736 mmHg 95%
    02:00 +7°C° 0 mm 4 mps 736 mmHg 95%
    03:00 +7°C° 0 mm 4 mps 736 mmHg 95%
    04:00 +7°C° 0 mm 4 mps 736 mmHg 95%
    05:00 +7°C° 0 mm 4 mps 736 mmHg 93%
    06:00 +7°C° 0 mm 4 mps 736 mmHg 91%
    07:00 +8°C° 0 mm 4 mps 736 mmHg 89%
    08:00 +9°C° 0 mm 5 mps 736 mmHg 81%
    09:00 +10°C° 0 mm 5 mps 736 mmHg 73%
    10:00 +13°C° 0 mm 5 mps 736 mmHg 65%
    11:00 +13°C° 0.1 mm 6 mps 736 mmHg 63%
    12:00 +14°C° 0.1 mm 6 mps 736 mmHg 62%
    13:00 +15°C° 0.1 mm 6 mps 736 mmHg 60%
    14:00 +15°C° 0.1 mm 6 mps 735 mmHg 58%
    15:00 +14°C° 0.1 mm 6 mps 735 mmHg 56%
    16:00 +14°C° 0.1 mm 6 mps 735 mmHg 54%
    17:00 +13°C° 0 mm 5 mps 734 mmHg 61%
    18:00 +12°C° 0 mm 4 mps 734 mmHg 67%
    19:00 +11°C° 0 mm 4 mps 734 mmHg 73%
    20:00 +10°C° 0 mm 4 mps 734 mmHg 77%
    21:00 +7°C° 0 mm 4 mps 734 mmHg 81%
    22:00 +6°C° 0 mm 4 mps 734 mmHg 85%
    23:00 +6°C° 0 mm 4 mps 734 mmHg 87%

    Tomorrow, 30 May, Saturday

    Time Temperature Precipitation Wind Pressure Humidity
    00:00 +5°C° 0 mm 3 mps 734 mmHg 89%
    01:00 +4°C° 0 mm 3 mps 734 mmHg 91%
    02:00 +4°C° 0 mm 3 mps 733 mmHg 92%
    03:00 +3°C° 0 mm 3 mps 733 mmHg 94%
    04:00 +3°C° 0 mm 3 mps 733 mmHg 95%
    05:00 +4°C° 0 mm 4 mps 733 mmHg 93%
    06:00 +5°C° 0 mm 4 mps 733 mmHg 90%
    07:00 +6°C° 0 mm 4 mps 733 mmHg 87%
    08:00 +8°C° 0.1 mm 5 mps 733 mmHg 82%
    09:00 +9°C° 0.1 mm 5 mps 733 mmHg 77%
    10:00 +12°C° 0.1 mm 5 mps 733 mmHg 72%
    11:00 +12°C° 0.3 mm 5 mps 732 mmHg 72%
    12:00 +12°C° 0.3 mm 5 mps 732 mmHg 72%
    13:00 +12°C° 0.3 mm 5 mps 732 mmHg 72%
    14:00 +12°C° 0.7 mm 5 mps 732 mmHg 77%
    15:00 +11°C° 0.7 mm 4 mps 731 mmHg 83%
    16:00 +10°C° 0.7 mm 3 mps 731 mmHg 88%
    17:00 +10°C° 0.4 mm 3 mps 731 mmHg 89%
    18:00 +10°C° 0.4 mm 4 mps 731 mmHg 89%
    19:00 +10°C° 0.4 mm 4 mps 731 mmHg 89%
    20:00 +10°C° 0.4 mm 4 mps 730 mmHg 90%
    21:00 +8°C° 0.4 mm 5 mps 730 mmHg 91%
    22:00 +8°C° 0.4 mm 5 mps 730 mmHg 92%
    23:00 +8°C° 0.6 mm 5 mps 729 mmHg 93%

    Day after tomorrow, 31 May, Sunday

    Time Temperature Precipitation Wind Pressure Humidity
    00:00 +7°C° 0.6 mm 6 mps 729 mmHg 93%
    01:00 +7°C° 0.6 mm 6 mps 729 mmHg 93%
    02:00 +6°C° 1.7 mm 7 mps 728 mmHg 94%
    03:00 +6°C° 1.7 mm 7 mps 728 mmHg 95%
    04:00 +6°C° 1.7 mm 7 mps 728 mmHg 96%
    05:00 +6°C° 3 mm 8 mps 727 mmHg 96%
    06:00 +6°C° 3 mm 8 mps 727 mmHg 96%
    07:00 +7°C° 3 mm 8 mps 727 mmHg 96%
    08:00 +8°C° 1.1 mm 7 mps 727 mmHg 95%
    09:00 +8°C° 1.1 mm 7 mps 727 mmHg 95%
    10:00 +8°C° 1.1 mm 7 mps 727 mmHg 94%
    11:00 +9°C° 0.3 mm 6 mps 727 mmHg 94%
    12:00 +9°C° 0.3 mm 6 mps 728 mmHg 94%
    13:00 +10°C° 0.3 mm 6 mps 728 mmHg 93%
    14:00 +11°C° 0.1 mm 6 mps 728 mmHg 92%
    15:00 +11°C° 0.1 mm 6 mps 728 mmHg 91%
    16:00 +13°C° 0.1 mm 6 mps 728 mmHg 90%
    17:00 +13°C° 0 mm 6 mps 729 mmHg 90%
    18:00 +13°C° 0 mm 6 mps 729 mmHg 89%
    19:00 +13°C° 0 mm 5 mps 729 mmHg 89%
    20:00 +12°C° 0 mm 5 mps 730 mmHg 89%
    21:00 +12°C° 0 mm 5 mps 730 mmHg 89%
    22:00 +12°C° 0 mm 5 mps 730 mmHg 89%
    23:00 +12°C° 0.1 mm 5 mps 731 mmHg 90%

    1 June, Monday

    Time Temperature Precipitation Wind Pressure Humidity
    00:00 +10°C° 0.1 mm 5 mps 731 mmHg 91%
    01:00 +10°C° 0.1 mm 5 mps 731 mmHg 91%
    02:00 +10°C° 0 mm 5 mps 731 mmHg 92%
    03:00 +9°C° 0 mm 5 mps 731 mmHg 93%
    04:00 +8°C° 0 mm 5 mps 731 mmHg 93%
    05:00 +9°C° 0 mm 5 mps 732 mmHg 89%
    06:00 +10°C° 0 mm 6 mps 732 mmHg 85%
    07:00 +11°C° 0 mm 6 mps 733 mmHg 81%
    08:00 +14°C° 0 mm 6 mps 733 mmHg 75%
    09:00 +15°C° 0 mm 7 mps 734 mmHg 69%
    10:00 +16°C° 0 mm 7 mps 734 mmHg 62%
    11:00 +17°C° 0 mm 6 mps 734 mmHg 62%
    12:00 +17°C° 0 mm 6 mps 734 mmHg 61%
    13:00 +17°C° 0 mm 6 mps 734 mmHg 60%
    14:00 +17°C° 0.1 mm 5 mps 734 mmHg 62%
    15:00 +17°C° 0.1 mm 5 mps 734 mmHg 63%
    16:00 +17°C° 0.1 mm 5 mps 734 mmHg 64%
    17:00 +16°C° 0.1 mm 5 mps 734 mmHg 69%
    18:00 +15°C° 0.1 mm 4 mps 734 mmHg 74%
    19:00 +13°C° 0.1 mm 4 mps 734 mmHg 79%
    20:00 +12°C° 0 mm 3 mps 734 mmHg 80%
    21:00 +11°C° 0 mm 3 mps 734 mmHg 82%
    22:00 +9°C° 0 mm 3 mps 735 mmHg 83%
    23:00 +9°C° 0 mm 3 mps 735 mmHg 82%

    2 June, Tuesday

    Time Temperature Precipitation Wind Pressure Humidity
    00:00 +8°C° 0 mm 2 mps 734 mmHg 82%
    01:00 +7°C° 0 mm 2 mps 734 mmHg 81%
    02:00 +7°C° 0 mm 2 mps 734 mmHg 81%
    03:00 +7°C° 0 mm 2 mps 734 mmHg 82%
    04:00 +7°C° 0 mm 2 mps 734 mmHg 82%
    05:00 +9°C° 0 mm 3 mps 734 mmHg 79%
    06:00 +10°C° 0 mm 3 mps 734 mmHg 76%
    07:00 +12°C° 0 mm 3 mps 735 mmHg 73%
    08:00 +13°C° 0.1 mm 3 mps 734 mmHg 69%
    09:00 +14°C° 0.1 mm 4 mps 734 mmHg 66%
    10:00 +17°C° 0.1 mm 4 mps 734 mmHg 62%
    11:00 +17°C° 0.1 mm 4 mps 734 mmHg 62%
    12:00 +17°C° 0.1 mm 4 mps 733 mmHg 61%
    13:00 +17°C° 0.1 mm 4 mps 733 mmHg 61%
    14:00 +17°C° 0.2 mm 4 mps 733 mmHg 64%
    15:00 +17°C° 0.2 mm 3 mps 732 mmHg 66%
    16:00 +17°C° 0.2 mm 3 mps 732 mmHg 68%
    17:00 +16°C° 0.1 mm 3 mps 732 mmHg 74%
    18:00 +15°C° 0.1 mm 2 mps 731 mmHg 79%
    19:00 +14°C° 0.1 mm 2 mps 731 mmHg 84%
    20:00 +13°C° 0 mm 2 mps 731 mmHg 87%
    21:00 +12°C° 0 mm 2 mps 731 mmHg 90%
    22:00 +10°C° 0 mm 2 mps 732 mmHg 92%
    23:00 +10°C° 0 mm 1 mps 731 mmHg 93%

    3 June, Wednesday

    Time Temperature Precipitation Wind Pressure Humidity
    00:00 +10°C° 0 mm 1 mps 731 mmHg 93%
    01:00 +9°C° 0 mm 1 mps 731 mmHg 93%
    02:00 +9°C° 0 mm 1 mps 731 mmHg 93%
    03:00 +9°C° 0 mm 1 mps 731 mmHg 93%
    04:00 +8°C° 0 mm 1 mps 730 mmHg 93%
    05:00 +10°C° 0 mm 1 mps 730 mmHg 89%
    06:00 +12°C° 0 mm 2 mps 731 mmHg 85%
    07:00 +13°C° 0 mm 2 mps 731 mmHg 80%
    08:00 +14°C° 0 mm 2 mps 731 mmHg 74%
    09:00 +16°C° 0 mm 3 mps 731 mmHg 67%
    10:00 +17°C° 0 mm 4 mps 730 mmHg 60%
    11:00 +17°C° 0 mm 3 mps 730 mmHg 58%
    12:00 +17°C° 0 mm 3 mps 730 mmHg 56%
    13:00 +18°C° 0 mm 3 mps 730 mmHg 54%
    14:00 +18°C° 0 mm 3 mps 730 mmHg 55%
    15:00 +18°C° 0 mm 3 mps 729 mmHg 55%
    16:00 +17°C° 0 mm 3 mps 729 mmHg 56%
    17:00 +16°C° 0 mm 3 mps 729 mmHg 62%
    18:00 +14°C° 0 mm 3 mps 728 mmHg 69%
    19:00 +14°C° 0 mm 2 mps 728 mmHg 75%
    20:00 +12°C° 0 mm 2 mps 728 mmHg 77%
    21:00 +10°C° 0 mm 3 mps 728 mmHg 78%
    22:00 +9°C° 0 mm 3 mps 728 mmHg 80%
    23:00 +9°C° 0 mm 3 mps 728 mmHg 82%
    Show more